Station 32ST0 - Stratus Image indicating link to RSS feed of recent meteorological observations for station 32ST0


Conditions at 32ST0 as of
(8:30 am CDT)
1330 GMT on 07/15/2024:
     

Click on the graph icon in the table below to see a time series plot of the last five days of that observation.

5-day plot - Wind Direction Wind Direction (WDIR): SE ( 130 deg true )
5-day plot - Wind Speed Wind Speed (WSPD): 15.5 kts
5-day plot - Atmospheric Pressure Atmospheric Pressure (PRES):30.17 in
5-day plot - Air Temperature Air Temperature (ATMP): 63.1 °F
5-day plot - Water Temperature Water Temperature (WTMP): 66.7 °F
5-day plot - Salinity Salinity (SAL): 35.30 psu
5-day plot - Dew Point Dew Point (DEWP): 54.1 °F
5-day plot - Wind Speed at 10 Meters Wind Speed at 10 meters (WSPD10M): 17.5 kts
5-day plot - Wind Speed at 20 Meters Wind Speed at 20 meters (WSPD20M): 19.4 kts
5-day plot -  Wind Speed, Wind Gust and Atmospheric Pressure Combined plot of Wind Speed, Gust, and Air Pressure
Previous observations
TIME
(CDT)
5-day plot - Wind Direction
WDIR
 
5-day plot - Wind Speed
WSPD
kts
5-day plot - Wind Gust
GST
kts
5-day plot - Wave Height
WVHT
ft
5-day plot - Dominant Wave Period
DPD
sec
5-day plot - Average Wave Period
APD
sec
5-day plot - Mean Wave Direction
MWD
 
5-day plot - Atmospheric Pressure
PRES
in
5-day plot - Pressure Tendency
PTDY
in
5-day plot - Air Temperature
ATMP
°F
5-day plot - Water Temperature
WTMP
°F
5-day plot - Dew Point
DEWP
°F
5-day plot - Salinity
SAL
psu
5-day plot - Visibility
VIS
nmi
5-day plot - Tide (above MLLW)
TIDE
ft
2024-07-15 07:30 amESE 17.5-----30.15- 62.4 66.7 56.1 35.30--
2024-07-15 06:30 am SE 17.5-----30.14- 62.2 66.7 55.4 35.30--
2024-07-15 05:30 am SE 17.5-----30.12- 62.4 66.7 55.2 35.30--
2024-07-15 04:30 am SE 17.5-----30.12- 63.0 66.7 55.2 35.30--
2024-07-15 03:30 am SE 17.5-----30.14- 62.8 66.7 55.2 35.30--
2024-07-15 02:30 amSSE 15.5-----30.16- 62.2 66.7 55.8 35.30--
2024-07-15 01:30 am SE 17.5-----30.18- 62.6 66.7 55.8 35.30--
2024-07-15 12:30 am SE 17.5-----30.19- 61.9 66.7 56.8 35.30--
2024-07-14 11:30 pm SE 17.5-----30.18- 61.9 66.7 56.3 35.30--
2024-07-14 10:30 pm SE 15.5-----30.17- 62.8 66.7 55.0 35.30--
2024-07-14 08:30 pmESE 15.5-----30.14- 63.5 66.7 53.8 35.30--
2024-07-14 07:30 pmESE 15.5-----30.13- 63.7 66.7 54.3 35.30--
2024-07-14 06:30 pmESE 15.5-----30.12- 63.9 66.7 54.7 35.30--
2024-07-14 05:30 pm SE 15.5-----30.13- 63.7 66.7 55.8 35.30--
2024-07-14 04:30 pm SE 15.5-----30.14- 63.3 66.7 56.8 35.30--
2024-07-14 03:30 pm SE 15.5-----30.14- 62.4 66.7 57.6 35.30--
2024-07-14 02:30 pmESE 15.5-----30.15- 63.5 66.7 57.2 35.30--
2024-07-14 01:30 pmESE 15.5-----30.17- 61.7 66.7 57.9 35.30--
2024-07-14 12:30 pm SE 15.5-----30.19- 62.8 66.7 57.2 35.30--
2024-07-14 11:30 am SE 15.5-----30.20- 62.8 66.7 56.1 35.30--
2024-07-14 10:30 am SE 15.5-----30.21- 63.9 66.7 54.0 35.30--

Ocean Conditions at 32ST0 as of
(8:30 am CDT)
1330 GMT on 07/15/2024:

These oceanographic data are displayed in rounded times.

     

Click on the graph icon in the table below to see a time series plot of the last five days of that observation.

Depth (DEPTH): 3.3 ft
5-day plot - Ocean Temperature Ocean Temperature (OTMP):66.74 °F
5-day plot - Salinity Salinity (SAL):35.30 psu
Previous observations
TIME
(CDT)
DEPTH
ft
5-day plot - Ocean Temperature
OTMP
°F
5-day plot - Conductivity
COND
mS/cm
5-day plot - Salinity
SAL
psu
5-day plot - Oxygen Concentration
O2%
%
5-day plot - Oxygen Concentration
O2PPM
ppm
5-day plot - Chlorophyll
CLCON
ug/l
5-day plot - Turbidity
TURB
FTU
5-day plot - pH
PH
 
5-day plot - Eh
EH
mv
2024-07-15 07:30 am 3.366.74-35.30------
2024-07-15 06:30 am 3.366.74-35.30------
2024-07-15 05:30 am 3.366.74-35.30------
2024-07-15 04:30 am 3.366.74-35.30------
2024-07-15 03:30 am 3.366.74-35.30------
2024-07-15 02:30 am 3.366.74-35.30------
2024-07-15 01:30 am 3.366.74-35.30------
2024-07-15 12:30 am 3.366.74-35.30------
2024-07-14 11:30 pm 3.366.74-35.30------
2024-07-14 10:30 pm 3.366.74-35.30------
2024-07-14 08:30 pm 3.366.74-35.30------
2024-07-14 07:30 pm 3.366.74-35.30------
2024-07-14 06:30 pm 3.366.74-35.30------
2024-07-14 05:30 pm 3.366.74-35.30------
2024-07-14 04:30 pm 3.366.74-35.30------
2024-07-14 03:30 pm 3.366.74-35.30------
2024-07-14 02:30 pm 3.366.74-35.30------
2024-07-14 01:30 pm 3.366.74-35.30------
2024-07-14 12:30 pm 3.366.74-35.30------
2024-07-14 11:30 am 3.366.74-35.30------
2024-07-14 10:30 am 3.366.74-35.30------

Solar Radiation Conditions at 32ST0 as of
(8:30 am CDT)
1330 GMT on 07/15/2024:
     

Click on the graph icon in the table below to see a time series plot of the last five days of that observation.

5-day plot - Short Wave Radiation 2 Short Wave Radiation 2 (SWRAD): 42.2watts/meter2
5-day plot - Long Wave Radiation Long Wave Radiation (LWRAD): 387.1watts/meter2
Previous observations
TIME
(CDT)
5-day plot - Short Wave Radiation 1
SRAD1
w/m2
5-day plot - Short Wave Radiation 2
SRAD2
w/m2
5-day plot - Long Wave Radiation
LRAD
w/m2
2024-07-15 07:30 am- 12.5 381.9
2024-07-15 06:30 am- 5.5 370.3
2024-07-15 05:30 am- 5.4 378.3
2024-07-15 04:30 am- 5.6 387.4
2024-07-15 03:30 am- 5.9 378.2
2024-07-15 02:30 am- 5.0 355.0
2024-07-15 01:30 am- 5.8 356.5
2024-07-15 12:30 am- 5.5 340.5
2024-07-14 11:30 pm- 4.9 348.2
2024-07-14 10:30 pm- 5.0 384.0
2024-07-14 08:30 pm- 5.5 387.1
2024-07-14 07:30 pm- 5.5 387.3
2024-07-14 06:30 pm- 8.8 372.2
2024-07-14 05:30 pm- 68.3 363.5
2024-07-14 04:30 pm- 233.0 360.1
2024-07-14 03:30 pm- 286.9 378.2
2024-07-14 02:30 pm- 493.1 356.1
2024-07-14 01:30 pm- 433.2 376.4
2024-07-14 12:30 pm- 490.5 366.0
2024-07-14 11:30 am- 621.3 336.7
2024-07-14 10:30 am- 412.5 354.1